Weather History for KMTJ - November, 2011

Change the Weather History Date:

Tuesday, November 22, 2011

  Actual Average Record
Temperature  
Mean Temperature 40 °F 34 °F  
Max Temperature 53 °F 46 °F 64 °F (1998)
Min Temperature 28 °F 23 °F 12 °F (2007)
Degree Days  
Heating Degree Days 24 31  
Month to date heating degree days 570  
Since 1 July heating degree days 1161  
Cooling Degree Days 0 0  
Month to date cooling degree days 0  
Year to date cooling degree days 643  
Moisture  
Dew Point 27 °F    
Average Humidity 65    
Maximum Humidity 89    
Minimum Humidity 35    
Precipitation  
Precipitation 0.00 in 0.02 in 0.12 in (2013)
Month to date precipitation 0.62  
Year to date precipitation 10.46  
Sea Level Pressure  
Sea Level Pressure 30.30 in    
Wind  
Wind Speed 4 mph (SSE)    
Max Wind Speed 9 mph    
Max Gust Speed -    
Visibility 10 miles    
Events      
T = Trace of Precipitation, MM = Missing Value Source: NWS Daily Summary

Daily Weather History Graph

Daily Weather History Graph

Search for Another Location

Airport or City:

Trip Planner

Search our weather history database for the weather conditions in past years. The results will help you decide how hot, cold, wet, or windy it might be!

Date:

Astronomy

Nov. 22, 2011 Rise Set
Actual Time 7:00 AM MST 4:54 PM MST
Civil Twilight 6:31 AM MST 5:23 PM MST
Nautical Twilight 5:59 AM MST 5:55 PM MST
Astronomical Twilight 5:27 AM MST 6:27 PM MST
Moon 3:56 AM MST (11/22) 2:54 PM MST (11/22)
Length of Visible Light 10h 51m
Length of Day
9h 53m
Waning Crescent, 9% of the Moon is Illuminated
Nov 22
Waning Crescent
Nov 24
New
Dec 2
First Quarter
Dec 10
Full
Dec 17
Last Quarter

Hourly Weather History & Observations

Time (MST) Temp. Windchill Dew Point Humidity Pressure Visibility Wind Dir Wind Speed Gust Speed Precip Events Conditions
12:53 AM 37.9 °F - 32.0 °F 79% 30.17 in 10.0 mi Calm Calm - 0.00 in   Overcast
1:53 AM 34.0 °F 29.8 °F 30.0 °F 85% 30.20 in 10.0 mi SSE 4.6 mph - N/A   Mostly Cloudy
2:53 AM 35.1 °F 31.0 °F 30.9 °F 85% 30.21 in 10.0 mi SE 4.6 mph - N/A   Overcast
3:53 AM 35.1 °F 31.0 °F 30.0 °F 82% 30.23 in 10.0 mi SE 4.6 mph - N/A   Overcast
4:53 AM 33.1 °F 28.7 °F 28.0 °F 82% 30.25 in 10.0 mi SW 4.6 mph - N/A   Scattered Clouds
5:53 AM 28.9 °F 25.2 °F 26.1 °F 89% 30.27 in 10.0 mi SSE 3.5 mph - N/A   Clear
6:53 AM 28.0 °F 21.7 °F 24.1 °F 85% 30.31 in 10.0 mi South 5.8 mph - N/A   Clear
7:53 AM 28.0 °F 22.8 °F 25.0 °F 88% 30.34 in 10.0 mi SE 4.6 mph - N/A   Clear
8:53 AM 37.0 °F 34.5 °F 28.0 °F 70% 30.35 in 10.0 mi SW 3.5 mph - N/A   Clear
9:53 AM 41.0 °F 39.0 °F 30.9 °F 67% 30.33 in 10.0 mi SSE 3.5 mph - N/A   Clear
10:53 AM 46.0 °F - 28.9 °F 51% 30.30 in 10.0 mi Calm Calm - N/A   Clear
11:53 AM 50.0 °F - 28.0 °F 43% 30.27 in 10.0 mi NNE 5.8 mph - N/A   Clear
12:53 PM 51.1 °F - 26.1 °F 38% 30.24 in 10.0 mi Variable 4.6 mph - N/A   Clear
1:53 PM 52.0 °F - 26.1 °F 37% 30.24 in 10.0 mi NNW 5.8 mph - N/A   Clear
2:53 PM 53.1 °F - 26.1 °F 35% 30.23 in 10.0 mi NNW 4.6 mph - N/A   Clear
3:53 PM 52.0 °F - 26.1 °F 37% 30.24 in 10.0 mi NNW 6.9 mph - N/A   Clear
4:53 PM 46.9 °F - 26.1 °F 44% 30.28 in 10.0 mi NW 5.8 mph - N/A   Clear
5:53 PM 43.0 °F - 27.0 °F 53% 30.34 in 10.0 mi Calm Calm - N/A   Clear
6:53 PM 37.0 °F 32.4 °F 25.0 °F 62% 30.38 in 10.0 mi SSE 5.8 mph - N/A   Clear
7:53 PM 36.0 °F 29.0 °F 25.0 °F 64% 30.40 in 10.0 mi SSE 9.2 mph - N/A   Clear
8:53 PM 33.1 °F 26.9 °F 23.0 °F 66% 30.39 in 10.0 mi SE 6.9 mph - N/A   Clear
9:53 PM 33.1 °F 25.5 °F 24.1 °F 70% 30.39 in 10.0 mi SSE 9.2 mph - N/A   Clear
10:53 PM 30.0 °F 25.2 °F 21.9 °F 72% 30.39 in 10.0 mi SSE 4.6 mph - N/A   Clear
11:53 PM 33.1 °F 25.5 °F 23.0 °F 66% 30.36 in 10.0 mi SSE 9.2 mph - N/A   Clear